User: anonymous   Login
Location: Unspecified
(50.7693°N, 0.0000°E)
Time: 18:47:42
(UTC+00:00)
Language:

Explorer 11/Cluster Stage 4 - Orbit

View from above orbital plane
View from above orbital plane
View from above satellite
View from above satellite

Ground track
Ground track

The orbit data is extracted from the following two-line orbital elements,

1   107U 61013A   20220.17644520  .00000371  00000-0  27453-4 0  9990
2   107  28.7884 254.9823 0546585 202.9001 154.6297 14.08978054972937
Epoch (UTC): 07 August 2020 04:14:04
Eccentricity: 0.0546585
inclination: 28.7884°
perigee height: 467 km
apogee height: 1258 km
right ascension of ascending node: 254.9823°
argument of perigee: 202.9001°
revolutions per day: 14.08978054
mean anomaly at epoch: 154.6297°
orbit number at epoch: 97293

The dashed part of the orbit path shows where the satellite is in the earth's shadow,  

DLR